Location: Newark
(42.9378°N, 74.1847°W)
Time: 18:24:20
(UTC+00:00)

Envisat - Visible Passes

Search period start: 19 January 2020 00:00
Search period end: 29 January 2020 00:00
Orbit: 764 x 766 km, 98.1° (Epoch: 19 January)

Date Brightness Start Highest point End Pass type
(mag) Time Alt. Az. Time Alt. Az. Time Alt. Az.
19 Jan 3.3 11:37:10 10° NNE 11:42:16 75° ESE 11:47:21 10° S visible
19 Jan 3.2 22:52:28 10° S 22:57:33 78° WSW 23:02:39 10° NNW visible
20 Jan 4.9 11:00:46 10° NNE 11:05:22 34° E 11:09:57 10° SSE visible
20 Jan 3.2 22:15:59 10° SE 22:20:51 49° ENE 22:25:44 10° N visible
20 Jan 5.6 23:56:22 10° SW 00:00:07 21° W 00:03:54 10° NW visible
21 Jan 6.1 10:25:15 10° NE 10:28:16 16° E 10:31:16 10° SE visible
21 Jan 4.2 23:18:16 10° S 23:23:05 44° W 23:27:58 10° NNW visible
22 Jan 3.7 11:25:56 10° NNE 11:30:58 59° E 11:35:58 10° S visible
22 Jan 3.0 22:41:11 10° SSE 22:46:15 84° ENE 22:51:22 10° NNW visible
23 Jan 6.3 00:24:13 10° WSW 00:25:54 12° W 00:27:37 10° WNW visible
23 Jan 5.3 10:49:42 10° NE 10:54:00 27° E 10:58:16 10° SSE visible
23 Jan 5.3 23:44:32 10° SSW 23:48:44 26° W 23:52:58 10° NW visible
24 Jan 6.3 10:14:50 10° ENE 10:16:51 12° E 10:18:50 10° ESE visible
24 Jan 3.8 23:06:47 10° S 23:11:45 57° W 23:16:46 10° NNW visible
25 Jan 4.2 11:14:44 10° NNE 11:19:39 47° E 11:24:31 10° S visible
25 Jan 3.0 22:29:57 10° SSE 22:34:59 67° ENE 22:40:03 10° N visible
26 Jan 6.1 00:11:38 10° SW 00:14:28 15° W 00:17:20 10° NW visible
26 Jan 5.7 10:38:44 10° NE 10:42:38 22° E 10:46:29 10° SE visible
26 Jan 4.9 23:32:50 10° SSW 23:37:21 32° W 23:41:55 10° NNW visible
27 Jan 3.2 11:40:04 10° NNE 11:45:11 82° ESE 11:50:16 10° S visible
27 Jan 3.3 22:55:23 10° S 23:00:27 72° WSW 23:05:33 10° NNW visible
28 Jan 4.7 11:03:35 10° NNE 11:08:18 37° E 11:12:59 10° SSE visible
